Location: New Plymouth
(39.0670°S, 174.0830°E)
Time: 12:05:05
(UTC+12:00)

ISS - Visible Passes

Search period start: 24 September 2020 00:00
Search period end: 04 October 2020 01:00
Orbit: 419 x 420 km, 51.6° (Epoch: 24 September)

Date Brightness Start Highest point End Pass type
(mag) Time Alt. Az. Time Alt. Az. Time Alt. Az.
24 Sep -1.4 04:28:47 15° NNE 04:30:18 20° NE 04:32:52 10° E visible
25 Sep -0.6 03:43:43 11° ENE 03:43:43 11° ENE 03:44:18 10° ENE visible
25 Sep -3.7 05:16:43 15° WNW 05:19:28 74° SW 05:22:55 10° SE visible
26 Sep -3.5 04:31:30 51° N 04:32:05 63° NE 04:35:30 10° ESE visible
27 Sep -1.4 04:46:11 24° E 04:46:11 24° E 04:47:56 10° ESE visible
27 Sep -2.4 06:19:09 13° W 06:21:38 29° SSW 06:24:41 10° SE visible
28 Sep -3.2 05:33:43 41° SW 05:34:06 43° SSW 05:37:26 10° SE visible
29 Sep -1.8 04:48:13 30° SE 04:48:13 30° SE 04:50:05 10° SE visible
29 Sep -1.5 06:21:44 10° WSW 06:23:57 16° SSW 06:26:12 10° SSE visible
30 Sep -0.1 04:02:38 10° ESE 04:02:38 10° ESE 04:02:39 10° ESE visible
30 Sep -1.9 05:35:35 19° SW 05:36:19 21° SSW 05:39:01 10° SSE visible
01 Oct -1.6 04:49:57 22° S 04:49:57 22° S 04:51:46 10° SSE visible
01 Oct -1.1 06:25:16 10° SSW 06:26:26 11° S 06:27:36 10° S visible
02 Oct -0.2 04:04:16 11° SE 04:04:16 11° SE 04:04:29 10° SE visible
02 Oct -1.2 05:37:13 11° SW 05:38:41 13° SSW 05:40:25 10° SSE visible
03 Oct -1.2 04:51:29 16° S 04:51:29 16° S 04:53:12 10° SSE visible
03 Oct -0.8 06:28:26 10° S 06:28:58 10° S 06:29:28 10° S visible
